When you browse on this site, cookies collect data to enhance your experience and personalize the content and advertising you see.
Visit our Privacy Policy to learn more. By continuing to use the site, you agree to this use of cookies and data.
  • In Lithuania
  • List of Countries
  • For 7 days
  • Water Temperature
  • Satellite Maps
  • Weather Map
  • Weather Widgets
  • user-avatar
    Login

    Hourly Weather La-Plata

    Today, 12 December, Wednesday

    Time Temperature Precipitation Wind Pressure Humidity
    00:00 +20°C° 0 mm 2 mps 756 mmHg 91%
    01:00 +20°C° 0 mm 2 mps 757 mmHg 92%
    02:00 +20°C° 0 mm 3 mps 757 mmHg 93%
    03:00 +20°C° 0 mm 3 mps 757 mmHg 94%
    04:00 +20°C° 0 mm 3 mps 757 mmHg 94%
    05:00 +20°C° 0 mm 3 mps 757 mmHg 95%
    06:00 +22°C° 0 mm 3 mps 758 mmHg 81%
    07:00 +25°C° 0 mm 4 mps 758 mmHg 67%
    08:00 +27°C° 0 mm 4 mps 758 mmHg 54%
    09:00 +28°C° 0 mm 4 mps 759 mmHg 46%
    10:00 +30°C° 0 mm 4 mps 759 mmHg 38%
    11:00 +31°C° 0 mm 3 mps 759 mmHg 31%
    12:00 +33°C° 0 mm 4 mps 759 mmHg 30%
    13:00 +33°C° 0 mm 4 mps 759 mmHg 30%
    14:00 +33°C° 0 mm 5 mps 759 mmHg 30%
    15:00 +32°C° 0 mm 5 mps 758 mmHg 32%
    16:00 +30°C° 0 mm 6 mps 758 mmHg 35%
    17:00 +29°C° 0 mm 6 mps 758 mmHg 37%
    18:00 +27°C° 0 mm 6 mps 758 mmHg 42%
    19:00 +24°C° 0 mm 6 mps 758 mmHg 48%
    20:00 +21°C° 0 mm 7 mps 759 mmHg 54%
    21:00 +21°C° 0 mm 7 mps 759 mmHg 54%
    22:00 +21°C° 0 mm 7 mps 759 mmHg 55%
    23:00 +21°C° 0 mm 7 mps 760 mmHg 55%

    Tomorrow, 13 December, Thursday

    Time Temperature Precipitation Wind Pressure Humidity
    00:00 +20°C° 0 mm 7 mps 759 mmHg 55%
    01:00 +20°C° 0 mm 7 mps 759 mmHg 54%
    02:00 +20°C° 0 mm 7 mps 759 mmHg 54%
    03:00 +20°C° 0 mm 7 mps 759 mmHg 53%
    04:00 +20°C° 0 mm 7 mps 759 mmHg 52%
    05:00 +20°C° 0 mm 7 mps 758 mmHg 52%
    06:00 +21°C° 0 mm 7 mps 758 mmHg 50%
    07:00 +22°C° 0 mm 8 mps 758 mmHg 48%
    08:00 +23°C° 0 mm 8 mps 758 mmHg 47%
    09:00 +24°C° 0 mm 8 mps 758 mmHg 47%
    10:00 +26°C° 0 mm 8 mps 758 mmHg 47%
    11:00 +27°C° 0 mm 8 mps 757 mmHg 47%
    12:00 +27°C° 0.2 mm 9 mps 756 mmHg 52%
    13:00 +27°C° 0.2 mm 9 mps 756 mmHg 56%
    14:00 +27°C° 0.2 mm 10 mps 755 mmHg 61%
    15:00 +26°C° 0.2 mm 9 mps 754 mmHg 66%
    16:00 +26°C° 0.2 mm 9 mps 754 mmHg 71%
    17:00 +24°C° 0.2 mm 8 mps 753 mmHg 75%
    18:00 +23°C° 0.2 mm 8 mps 753 mmHg 79%
    19:00 +22°C° 0.2 mm 7 mps 754 mmHg 82%
    20:00 +22°C° 0.2 mm 7 mps 754 mmHg 86%
    21:00 +21°C° 0.6 mm 7 mps 754 mmHg 87%
    22:00 +21°C° 0.6 mm 7 mps 754 mmHg 89%
    23:00 +21°C° 0.6 mm 7 mps 754 mmHg 90%

    Day after tomorrow, 14 December, Friday

    Time Temperature Precipitation Wind Pressure Humidity
    00:00 +21°C° 0.5 mm 6 mps 753 mmHg 90%
    01:00 +21°C° 0.5 mm 6 mps 753 mmHg 91%
    02:00 +21°C° 0.5 mm 5 mps 753 mmHg 92%
    03:00 +21°C° 1.7 mm 5 mps 753 mmHg 93%
    04:00 +21°C° 1.7 mm 4 mps 753 mmHg 94%
    05:00 +21°C° 1.7 mm 3 mps 753 mmHg 94%
    06:00 +22°C° 0.2 mm 3 mps 753 mmHg 93%
    07:00 +22°C° 0.2 mm 3 mps 754 mmHg 91%
    08:00 +24°C° 0.2 mm 3 mps 754 mmHg 90%
    09:00 +25°C° 0 mm 3 mps 754 mmHg 85%
    10:00 +26°C° 0 mm 3 mps 754 mmHg 79%
    11:00 +28°C° 0 mm 3 mps 754 mmHg 74%
    12:00 +29°C° 0 mm 3 mps 754 mmHg 66%
    13:00 +31°C° 0 mm 3 mps 753 mmHg 58%
    14:00 +34°C° 0 mm 2 mps 753 mmHg 50%
    15:00 +31°C° 0.3 mm 3 mps 753 mmHg 57%
    16:00 +30°C° 0.3 mm 4 mps 754 mmHg 64%
    17:00 +29°C° 0.3 mm 4 mps 754 mmHg 71%
    18:00 +27°C° 0.3 mm 5 mps 755 mmHg 69%
    19:00 +25°C° 0.3 mm 5 mps 755 mmHg 68%
    20:00 +22°C° 0.3 mm 6 mps 756 mmHg 67%
    21:00 +21°C° 0 mm 5 mps 757 mmHg 64%
    22:00 +20°C° 0 mm 4 mps 757 mmHg 61%
    23:00 +19°C° 0 mm 4 mps 757 mmHg 58%

    15 December, Saturday

    Time Temperature Precipitation Wind Pressure Humidity
    00:00 +18°C° 0 mm 3 mps 757 mmHg 58%
    01:00 +18°C° 0 mm 3 mps 757 mmHg 58%
    02:00 +17°C° 0 mm 3 mps 758 mmHg 59%
    03:00 +16°C° 0 mm 3 mps 758 mmHg 59%
    04:00 +16°C° 0 mm 3 mps 758 mmHg 60%
    05:00 +14°C° 0 mm 4 mps 759 mmHg 61%
    06:00 +18°C° 0 mm 3 mps 759 mmHg 56%
    07:00 +20°C° 0 mm 2 mps 760 mmHg 50%
    08:00 +23°C° 0 mm 2 mps 760 mmHg 44%
    09:00 +25°C° 0 mm 2 mps 760 mmHg 39%
    10:00 +27°C° 0 mm 2 mps 760 mmHg 34%
    11:00 +29°C° 0 mm 2 mps 760 mmHg 28%
    12:00 +30°C° 0 mm 2 mps 760 mmHg 27%
    13:00 +30°C° 0 mm 2 mps 760 mmHg 26%
    14:00 +31°C° 0 mm 2 mps 759 mmHg 25%
    15:00 +31°C° 0 mm 2 mps 759 mmHg 27%
    16:00 +30°C° 0 mm 2 mps 759 mmHg 29%
    17:00 +30°C° 0 mm 2 mps 759 mmHg 31%
    18:00 +28°C° 0 mm 2 mps 759 mmHg 35%
    19:00 +26°C° 0 mm 2 mps 759 mmHg 39%
    20:00 +24°C° 0 mm 2 mps 759 mmHg 43%
    21:00 +23°C° 0 mm 2 mps 760 mmHg 45%
    22:00 +22°C° 0 mm 3 mps 760 mmHg 47%
    23:00 +21°C° 0 mm 3 mps 760 mmHg 49%

    16 December, Sunday

    Time Temperature Precipitation Wind Pressure Humidity
    00:00 +21°C° 0 mm 3 mps 760 mmHg 50%
    01:00 +21°C° 0 mm 4 mps 759 mmHg 51%
    02:00 +21°C° 0 mm 4 mps 759 mmHg 52%
    03:00 +21°C° 0 mm 4 mps 759 mmHg 52%
    04:00 +20°C° 0 mm 5 mps 759 mmHg 53%
    05:00 +20°C° 0 mm 5 mps 759 mmHg 53%
    06:00 +22°C° 0 mm 5 mps 759 mmHg 49%
    07:00 +25°C° 0 mm 5 mps 760 mmHg 45%
    08:00 +26°C° 0 mm 6 mps 760 mmHg 42%
    09:00 +28°C° 0 mm 5 mps 759 mmHg 38%
    10:00 +30°C° 0 mm 4 mps 759 mmHg 34%
    11:00 +33°C° 0 mm 4 mps 758 mmHg 30%
    12:00 +34°C° 0 mm 4 mps 757 mmHg 29%
    13:00 +35°C° 0 mm 3 mps 757 mmHg 28%
    14:00 +35°C° 0 mm 3 mps 756 mmHg 27%
    15:00 +35°C° 0 mm 3 mps 755 mmHg 30%
    16:00 +35°C° 0 mm 3 mps 755 mmHg 33%
    17:00 +34°C° 0 mm 3 mps 754 mmHg 36%
    18:00 +31°C° 0 mm 3 mps 754 mmHg 45%
    19:00 +29°C° 0 mm 3 mps 754 mmHg 54%
    20:00 +27°C° 0 mm 3 mps 754 mmHg 63%
    21:00 +27°C° 0 mm 3 mps 754 mmHg 68%
    22:00 +27°C° 0 mm 4 mps 754 mmHg 73%
    23:00 +26°C° 0 mm 4 mps 754 mmHg 78%

    17 December, Monday

    Time Temperature Precipitation Wind Pressure Humidity
    00:00 +26°C° 0.3 mm 4 mps 754 mmHg 80%
    01:00 +25°C° 0.3 mm 4 mps 755 mmHg 82%
    02:00 +23°C° 0.3 mm 4 mps 755 mmHg 85%
    03:00 +21°C° 0.1 mm 5 mps 755 mmHg 81%
    04:00 +18°C° 0.1 mm 7 mps 756 mmHg 78%
    05:00 +16°C° 0.1 mm 8 mps 757 mmHg 74%
    06:00 +18°C° 0.1 mm 8 mps 758 mmHg 65%
    07:00 +21°C° 0.1 mm 9 mps 759 mmHg 55%
    08:00 +22°C° 0.1 mm 9 mps 760 mmHg 45%
    09:00 +23°C° 0 mm 9 mps 760 mmHg 40%
    10:00 +26°C° 0 mm 9 mps 760 mmHg 35%
    11:00 +27°C° 0 mm 9 mps 761 mmHg 30%
    12:00 +27°C° 0 mm 10 mps 761 mmHg 29%
    13:00 +27°C° 0 mm 10 mps 761 mmHg 29%
    14:00 +27°C° 0 mm 10 mps 761 mmHg 28%
    15:00 +26°C° 0 mm 10 mps 761 mmHg 31%
    16:00 +24°C° 0 mm 9 mps 762 mmHg 33%
    17:00 +22°C° 0 mm 9 mps 762 mmHg 36%
    18:00 +21°C° 0 mm 8 mps 763 mmHg 42%
    19:00 +18°C° 0 mm 8 mps 764 mmHg 47%
    20:00 +16°C° 0 mm 7 mps 764 mmHg 53%
    21:00 +15°C° 0 mm 7 mps 765 mmHg 56%
    22:00 +15°C° 0 mm 7 mps 765 mmHg 59%
    23:00 +14°C° 0 mm 6 mps 765 mmHg 62%
    Show more